ECMWFFLT2_sfc_temp_021.txt.gz
Temp
71 72 72 71 71 72 74 74 74 74 74 74 75 75 75 76 76 76 75 75 74 73 72 73 73 74 75 73 73 74 75 75 74 74 74 74 74 74 74 73 73 72 73 73 73 73 73 73 73 74 74 74 75 69 70 73 72 72 71 71 71 72
71 71 71 72 72 72 72 73 72 72 73 74 75 75 74 73 75 72 74 72 71 72 71 70 72 75 72 73 73 74 75 74 74 74 73 73 73 73 73 73 73 73 72 72 73 68 69 72 73 73 73 74 70 68 70 73 72 71 71 70 70 73
71 71 71 71 71 71 71 70 71 71 73 74 74 73 72 73 71 71 71 71 71 71 71 72 72 73 73 73 73 74 74 74 74 74 73 73 73 73 72 72 72 72 72 72 69 67 66 67 67 73 73 71 67 69 72 72 71 70 70 70 71 75
70 70 69 69 70 69 70 70 70 70 70 71 71 72 72 72 72 71 71 70 70 71 71 71 77 77 75 72 72 74 74 74 74 74 73 72 73 72 73 72 72 72 70 69 66 66 68 68 68 66 67 67 68 70 72 71 71 70 70 73 72 75
69 69 69 69 70 69 69 70 70 70 70 70 71 72 72 71 71 70 70 69 70 70 70 69 69 69 69 70 69 69 70 70 69 68 72 66 67 68 68 67 66 68 65 66 67 67 68 68 67 68 68 68 69 71 71 71 71 69 68 69 70 74
69 68 69 68 69 71 70 68 69 70 70 71 71 71 71 70 69 69 69 69 70 69 68 68 68 68 68 68 68 68 68 68 67 67 69 66 67 67 66 67 67 67 66 67 68 68 69 70 69 67 68 68 70 71 71 70 70 69 68 68 71 73
68 68 68 69 69 70 68 69 70 70 71 70 71 70 69 69 69 69 69 69 68 67 67 66 67 67 67 67 68 68 67 67 67 67 68 67 68 68 67 67 68 68 68 69 70 71 71 72 70 71 70 72 71 72 70 70 69 68 67 68 71 73
68 68 67 68 69 68 68 69 69 67 66 69 68 67 68 68 69 68 69 69 69 67 66 66 67 67 66 66 66 67 67 67 67 67 68 68 68 68 68 68 68 69 70 70 72 74 73 75 69 70 69 70 70 69 70 70 68 68 67 67 69 72
69 69 68 67 68 66 67 67 66 66 66 69 66 66 67 67 68 68 69 70 70 67 67 68 67 66 66 65 65 66 67 66 67 66 67 66 67 66 66 66 67 69 69 70 70 71 72 69 68 70 69 70 70 70 67 68 69 69 67 67 68 70
70 69 68 68 68 67 66 65 65 65 66 67 66 66 67 67 67 68 68 69 70 69 68 66 65 65 65 64 64 65 66 67 66 66 66 65 65 66 65 65 67 67 66 67 68 68 69 69 68 70 69 69 67 67 67 68 69 68 68 67 68 69
67 68 68 68 67 65 66 65 65 66 66 66 66 67 67 67 67 68 68 69 70 70 68 66 65 64 65 64 63 64 66 66 66 65 66 66 66 66 66 65 67 65 65 66 66 67 66 66 69 69 67 68 66 66 67 67 68 67 68 67 67 68
67 67 68 67 66 66 66 65 66 66 66 66 67 67 67 67 68 67 69 69 69 68 68 66 66 65 64 64 64 64 66 66 66 66 66 66 66 65 66 67 67 67 65 66 65 65 66 66 69 68 68 66 66 66 66 66 66 67 67 67 67 68
67 67 66 66 66 66 66 66 66 66 66 67 67 68 67 67 67 67 68 68 68 68 68 66 65 65 65 63 64 64 65 66 66 66 66 67 66 66 66 66 66 66 66 65 65 64 66 68 67 66 67 67 66 66 66 67 66 67 68 67 66 66
67 66 66 65 66 66 66 66 66 66 67 67 66 67 67 67 67 67 68 68 67 67 67 66 66 65 64 64 64 65 66 66 66 66 65 66 65 65 65 65 65 65 66 64 64 64 66 66 66 65 65 66 66 65 64 66 66 67 67 68 67 67
67 66 66 66 66 65 66 66 66 66 66 66 67 68 67 67 68 68 68 67 67 67 66 67 67 65 64 64 65 66 66 65 66 66 66 66 65 64 65 65 65 64 64 64 64 64 66 66 65 66 65 65 65 66 66 66 67 68 68 67 67 66
66 66 66 66 66 66 66 66 66 68 67 69 69 69 67 68 69 69 68 67 68 68 67 66 67 67 65 65 66 66 65 66 66 65 65 66 66 64 64 64 65 65 64 63 64 64 66 66 66 66 65 65 65 66 65 66 67 67 67 67 66 64
66 66 66 66 66 65 65 66 67 69 69 69 69 68 69 69 70 69 68 68 67 68 67 67 67 67 66 66 65 66 66 66 66 65 65 65 65 64 64 64 64 65 64 63 63 64 64 65 66 65 65 64 64 64 64 65 66 66 70 66 64 65
66 66 66 66 66 66 66 66 67 68 69 68 68 68 69 70 69 68 69 68 68 68 67 67 67 67 66 66 65 65 65 66 65 64 65 65 64 64 64 64 64 64 64 63 63 62 62 65 66 65 64 65 64 65 64 65 66 67 65 65 63 64
67 66 66 66 66 66 66 66 67 68 67 66 68 68 69 68 68 68 69 70 69 68 68 68 67 67 66 66 65 64 64 64 65 64 65 65 64 64 64 65 64 63 64 64 63 64 63 64 66 66 65 64 64 65 64 65 64 65 65 66 66 66
67 67 67 67 67 66 66 65 65 66 66 66 67 68 68 68 68 67 69 71 70 68 68 67 67 67 66 65 63 63 64 63 64 65 65 64 63 63 64 64 64 64 63 64 64 65 64 65 65 64 63 64 64 64 65 65 65 66 65 66 66 65
67 68 67 66 66 65 65 64 64 65 64 65 67 67 68 68 69 69 70 70 70 68 68 67 68 67 65 66 64 63 64 64 64 65 64 64 64 64 65 64 64 64 63 63 63 63 65 66 64 62 63 62 64 64 66 65 65 66 67 67 66 65
66 66 66 66 66 64 64 65 63 62 63 63 65 67 66 68 68 70 69 69 69 69 68 67 67 66 66 65 64 63 64 63 64 64 65 65 64 64 65 65 65 63 63 62 62 63 65 64 61 59 59 59 59 62 63 63 66 68 67 68 66 64
64 64 64 65 64 63 62 63 63 63 63 66 69 70 71 70 70 70 68 69 68 67 67 66 67 67 66 65 64 64 63 63 63 64 63 63 64 63 64 64 65 62 60 61 62 64 63 61 59 59 59 58 56 55 59 60 62 66 67 67 67 67
64 63 63 64 64 64 64 63 63 64 67 70 70 69 69 69 70 70 69 69 68 67 66 66 66 67 67 65 64 63 63 63 64 63 63 63 63 64 64 64 64 62 62 60 61 60 62 61 60 62 57 55 55 54 53 57 58 64 66 68 68 69
64 64 64 64 63 63 65 63 64 67 68 68 68 67 66 66 67 68 68 67 67 67 67 66 66 67 66 65 64 64 64 64 64 64 64 64 64 65 65 65 65 63 61 60 59 59 60 61 62 62 58 56 55 53 52 55 58 60 63 64 68 70
64 64 64 64 64 65 65 65 64 64 64 64 63 64 63 63 64 65 66 67 68 68 67 65 65 65 65 65 65 65 65 65 64 64 64 64 66 66 64 65 65 63 63 63 61 59 58 60 61 61 61 60 57 53 55 58 55 54 63 64 66 69
64 64 65 65 64 65 64 64 65 66 65 64 63 64 63 65 65 65 67 66 67 67 67 66 64 64 64 65 65 65 65 65 65 64 66 64 64 65 66 67 66 64 64 63 62 59 59 59 60 61 62 60 61 61 61 58 54 57 55 58 61 62
65 65 66 65 64 65 65 64 65 66 65 65 65 64 65 65 66 67 65 66 65 65 66 66 65 65 65 65 65 64 64 63 64 64 65 65 65 65 67 68 66 65 64 64 63 61 60 60 60 58 60 60 61 62 61 60 59 57 55 54 56 62
64 65 65 65 65 65 66 65 65 65 64 65 66 65 65 66 64 64 64 65 66 66 66 66 65 65 65 67 67 65 64 64 64 65 66 66 65 66 65 65 64 64 63 63 64 62 61 60 61 59 60 60 60 60 60 60 61 60 56 55 54 57
64 63 64 64 66 66 66 66 66 65 65 64 65 64 64 63 63 63 63 63 63 64 64 65 65 66 66 66 66 66 66 65 65 65 65 65 65 65 64 64 64 64 65 64 63 63 62 60 61 61 62 61 61 59 59 60 60 59 60 60 57 56
64 63 63 63 65 66 66 67 67 66 66 64 64 64 63 62 61 62 63 63 63 63 64 64 63 65 65 65 64 64 64 65 65 65 65 65 64 64 63 63 63 64 65 64 64 62 62 62 62 61 62 61 61 61 60 57 58 58 58 56 55 56
63 63 63 63 64 65 64 66 66 66 65 65 65 65 64 62 62 62 61 61 62 63 63 64 63 63 63 64 64 63 64 64 64 64 65 65 65 65 64 64 63 64 63 63 63 63 63 62 62 61 62 62 62 62 61 60 61 60 60 59 59 56
62 63 64 63 63 64 64 66 66 66 65 65 65 65 64 63 63 63 61 62 62 61 62 63 61 63 64 63 63 64 65 64 63 63 64 65 64 65 66 64 63 62 63 62 62 63 62 61 61 61 60 61 62 62 62 61 62 61 61 61 60 57
62 62 63 63 63 64 65 65 65 65 65 65 64 64 64 64 63 63 63 62 62 62 62 62 63 61 62 65 63 64 64 64 62 63 63 63 65 66 65 64 63 63 63 62 61 60 60 60 60 61 62 60 60 61 61 60 60 62 61 60 59 59
63 63 63 63 63 63 64 65 65 64 64 65 64 63 62 64 63 63 62 62 62 62 62 62 63 64 62 63 63 64 63 63 64 63 62 63 65 63 63 64 64 62 61 61 62 61 60 61 62 60 59 59 61 60 60 60 59 62 62 63 62 60
64 63 63 63 63 63 64 65 65 64 64 64 64 64 63 64 63 62 62 63 63 62 63 62 63 63 63 63 63 63 63 62 61 62 63 64 63 63 63 62 61 62 62 65 62 61 60 61 61 60 60 60 62 60 60 62 63 60 61 63 62 59
64 63 63 63 63 63 64 64 64 64 64 63 64 63 63 62 62 62 63 63 63 62 63 64 64 62 61 60 60 61 63 62 62 61 62 62 62 62 62 61 61 60 60 60 62 62 59 60 57 59 60 60 59 60 60 60 62 61 62 62 62 61

ECMWFFLT2_sfc_temp_024.txt.gz
Temp
70 71 71 72 72 72 73 75 74 74 74 74 74 75 75 75 75 75 75 74 73 72 72 73 73 73 74 72 73 74 74 74 74 74 74 73 73 73 73 73 73 72 72 73 72 73 73 73 73 73 73 73 73 69 68 68 68 68 68 68 69 70
70 71 71 71 72 72 73 73 72 72 72 73 74 75 73 72 74 72 75 73 71 72 71 71 72 74 72 73 73 74 74 74 73 73 73 73 72 73 73 72 72 72 72 71 73 65 65 69 72 72 73 72 68 68 68 68 68 67 68 68 68 71
71 71 71 70 71 71 72 71 71 71 73 74 74 73 71 71 69 70 70 71 70 70 70 71 71 72 72 73 73 74 74 74 74 74 73 73 72 72 72 72 72 72 71 72 65 63 63 64 65 71 70 67 66 67 67 67 67 67 67 68 68 74
71 70 69 68 69 69 70 70 70 70 70 70 70 70 70 69 69 69 69 69 69 71 70 70 75 76 75 72 72 73 74 74 74 73 73 71 72 72 72 71 72 71 68 67 63 63 64 65 65 65 65 66 67 67 67 67 67 67 68 71 69 74
70 69 68 68 68 68 68 68 68 69 69 68 69 69 68 68 69 69 69 68 69 69 68 69 69 70 69 69 69 69 70 69 68 68 70 64 64 66 64 63 62 65 62 63 65 63 64 65 65 66 65 66 68 67 67 67 67 66 67 68 69 73
69 68 68 67 68 69 68 68 68 68 68 69 69 68 68 67 67 68 68 69 69 68 68 68 68 68 68 68 67 67 67 67 66 66 67 64 64 64 64 64 64 64 64 64 64 65 65 66 65 65 66 67 68 66 67 65 66 66 66 67 70 73
68 68 68 68 68 67 67 67 67 67 68 67 68 68 67 67 67 68 69 69 68 67 67 67 67 67 67 67 66 66 66 66 66 66 66 65 65 65 64 64 64 65 65 66 67 68 67 67 66 67 67 69 68 67 66 66 65 65 66 67 71 73
68 68 67 67 67 66 66 66 67 69 68 69 68 66 66 67 68 68 69 69 69 67 67 66 66 66 65 65 65 66 65 65 64 64 66 65 65 64 64 64 66 66 67 67 67 67 67 67 65 67 67 67 66 66 66 65 66 66 66 67 68 71
68 66 66 67 66 66 66 66 66 66 67 70 66 66 66 67 67 67 68 69 69 67 67 67 66 65 65 65 65 66 65 64 65 65 66 64 65 65 64 64 65 65 65 65 64 65 66 66 65 66 67 67 67 66 65 65 65 65 65 65 67 69
67 66 66 66 65 65 65 65 65 66 67 68 65 66 67 66 67 67 67 68 69 68 67 66 65 64 65 64 64 64 65 64 64 64 64 64 64 64 63 64 64 65 64 64 64 65 65 66 66 65 66 67 65 65 65 65 65 65 65 66 67 67
67 67 67 66 65 65 65 65 65 66 66 66 66 66 66 66 66 67 67 68 68 68 66 65 65 64 64 63 64 64 63 64 63 63 63 64 65 65 64 64 65 64 63 64 63 64 63 64 65 67 65 66 65 65 65 65 65 65 66 65 65 66
67 67 66 65 66 65 65 65 66 65 66 66 66 65 66 66 67 66 68 67 67 67 66 65 65 64 64 63 63 63 64 64 63 63 63 64 64 64 65 64 66 65 64 64 63 63 63 63 63 64 65 65 65 65 64 65 65 65 65 64 65 65
66 66 65 65 65 65 65 66 65 65 65 66 66 66 66 66 66 66 67 67 66 67 67 65 64 65 65 63 63 63 63 63 64 64 64 64 64 64 65 65 64 65 64 63 63 63 65 64 63 63 63 65 65 65 65 65 65 65 65 64 65 64
66 65 65 65 65 65 65 65 65 65 66 66 66 66 66 66 67 66 67 67 66 67 66 65 65 64 63 63 63 63 63 65 65 64 64 64 64 64 64 64 64 64 65 63 62 62 63 63 62 63 63 64 64 64 64 65 64 64 65 65 65 65
66 65 66 65 65 64 64 64 64 65 65 65 66 65 65 66 65 66 67 66 66 66 66 65 65 64 63 63 63 63 64 64 64 64 63 62 63 63 64 63 63 63 63 62 62 63 63 62 62 63 62 63 64 64 64 64 64 65 65 65 64 64
66 65 65 65 64 64 65 64 65 66 65 65 65 65 65 65 66 66 66 66 66 67 66 66 65 65 64 63 64 64 64 64 64 64 63 63 63 63 63 63 63 63 62 62 63 63 63 63 63 63 63 64 63 65 63 63 64 64 64 64 64 63
65 64 64 65 64 64 64 64 64 65 65 65 65 65 65 65 66 66 66 66 66 66 66 66 66 65 65 64 64 64 64 65 64 64 64 63 62 63 63 63 63 63 63 61 62 63 63 64 63 63 63 63 63 63 62 63 64 64 65 63 62 62
65 65 65 64 64 64 64 64 64 65 66 65 65 65 65 66 66 65 65 65 66 66 65 65 66 65 65 65 64 64 64 64 64 64 63 63 62 62 62 63 62 62 63 63 62 62 62 63 64 64 63 63 63 63 63 64 64 65 62 62 63 62
65 65 65 65 65 65 65 65 64 65 65 65 66 65 66 66 66 66 65 66 66 66 66 65 65 65 65 64 63 63 63 63 64 63 63 62 62 62 62 62 62 62 63 63 62 62 62 63 65 64 63 62 63 63 63 64 63 62 62 62 63 64
65 65 65 65 65 64 65 64 65 65 65 64 64 66 65 65 66 65 67 66 66 65 66 65 65 65 64 63 62 62 63 63 63 63 63 62 61 62 62 61 61 62 62 63 63 62 63 63 63 62 62 62 62 63 63 63 63 63 62 62 62 62
64 65 65 64 64 64 64 64 63 64 63 63 64 64 65 64 65 65 67 67 67 66 65 66 66 65 64 65 63 62 62 63 64 64 63 62 62 62 62 61 61 62 62 61 61 62 63 64 63 60 61 61 62 62 65 65 64 63 63 63 62 61
64 65 65 65 65 64 65 65 63 63 62 62 63 64 63 63 65 66 66 66 66 66 65 65 65 65 65 63 62 62 62 62 63 63 63 62 62 63 63 63 62 61 61 60 61 62 64 62 60 58 58 57 59 61 61 62 63 64 63 62 61 60
65 65 65 65 65 64 62 63 63 61 64 62 65 65 66 65 66 66 66 66 66 65 65 65 65 65 64 63 63 63 63 63 63 64 63 62 62 62 62 63 62 61 60 59 60 61 61 58 58 58 57 58 55 55 59 58 61 63 63 62 61 62
64 64 64 65 65 63 64 62 62 64 65 66 65 65 65 64 66 66 65 65 65 65 65 64 65 65 64 63 63 63 62 63 63 64 63 62 61 62 62 62 61 61 61 60 57 59 60 59 58 61 57 53 54 52 52 57 56 60 62 62 62 62
63 63 63 64 63 62 62 62 63 64 65 65 64 63 63 62 63 65 65 64 64 64 64 64 64 64 64 62 61 62 63 63 62 61 63 62 62 62 62 62 62 61 61 60 57 57 58 61 60 60 58 55 53 52 50 54 54 57 59 61 63 63
61 62 62 63 62 63 65 64 64 64 62 61 60 61 60 61 62 63 63 63 64 64 64 63 63 64 63 63 62 62 62 63 62 62 63 62 63 63 62 62 62 61 60 61 61 58 57 59 59 60 58 56 55 53 54 54 52 53 59 58 61 65
62 61 62 62 62 64 64 65 66 65 64 63 61 60 61 62 63 62 63 63 63 62 63 63 62 62 62 62 62 62 62 63 63 62 63 63 63 63 63 64 63 62 61 61 61 59 59 58 59 58 59 59 60 57 58 56 52 53 53 56 58 59
62 62 62 62 62 65 64 62 62 62 62 62 62 61 61 61 61 62 61 62 62 61 62 62 62 60 61 62 61 61 61 62 62 63 63 64 63 63 64 64 63 62 62 62 61 60 58 58 59 57 59 58 58 58 57 57 57 57 54 53 54 59
62 62 61 62 63 62 63 63 63 62 61 62 63 62 61 62 61 62 60 60 61 61 60 61 61 61 61 61 62 61 60 61 61 62 64 62 62 63 63 62 61 61 61 61 60 60 60 58 59 58 58 58 57 58 58 58 58 57 53 55 52 55
62 61 62 60 61 60 61 63 63 62 62 61 62 61 61 60 60 61 61 60 60 60 61 60 60 61 60 61 61 60 60 61 61 61 63 62 61 62 62 62 62 62 61 61 60 61 61 59 60 60 60 58 57 57 58 58 56 55 57 55 56 55
61 61 61 60 60 60 60 63 63 63 62 61 61 61 60 60 60 61 61 59 60 60 61 61 61 60 60 61 60 61 60 60 61 63 62 61 61 62 62 62 61 61 60 61 60 60 59 59 59 59 59 59 59 60 59 57 57 56 54 53 53 54
60 60 60 60 60 60 62 63 63 63 62 62 62 62 61 60 61 61 59 59 59 60 60 61 60 60 60 60 61 60 61 61 62 61 61 62 61 62 62 62 61 61 61 61 61 61 59 59 58 59 59 59 59 60 58 59 59 58 57 56 57 54
60 59 60 59 60 61 62 63 63 63 62 62 61 61 60 60 59 59 59 59 59 60 59 61 59 60 58 59 60 62 61 61 61 62 62 61 61 61 62 62 62 61 61 62 61 61 59 59 59 59 59 58 59 59 58 58 59 58 57 56 58 54
59 59 59 60 61 61 61 62 62 63 62 62 61 61 60 61 59 60 60 60 60 59 60 60 59 59 59 59 60 60 60 59 59 59 61 61 62 61 61 61 61 61 60 59 59 59 58 58 58 58 58 59 58 58 59 58 59 58 58 57 54 56
60 59 59 60 60 61 61 61 62 62 61 62 61 60 60 61 60 60 59 60 60 59 59 58 60 59 59 59 59 59 59 59 59 59 60 61 62 61 60 61 60 59 58 57 58 58 56 57 58 57 56 57 57 58 57 55 58 60 61 60 58 56
61 60 60 60 61 61 61 61 61 61 61 61 61 60 60 60 59 59 59 61 60 59 60 59 59 59 59 60 59 59 58 57 58 60 60 60 60 60 59 59 58 58 58 60 58 57 56 57 57 57 57 56 57 57 56 56 60 61 62 61 58 56
61 61 60 60 61 60 61 61 61 61 61 60 60 60 60 58 58 59 60 60 60 60 59 60 60 59 58 57 58 59 59 58 58 58 58 58 59 59 59 59 59 57 57 57 58 57 56 57 56 56 56 56 57 56 56 57 60 61 60 59 58 55

ECMWFFLT2_sfc_temp_030.txt.gz
Temp
71 71 71 71 71 71 73 74 74 74 74 74 74 74 74 75 75 75 74 74 72 71 71 72 73 73 74 73 73 74 75 75 74 74 74 73 73 73 72 72 72 71 71 70 70 71 72 72 73 73 73 73 73 68 67 67 67 68 68 69 69 69
70 70 70 70 71 71 72 73 71 72 72 73 74 74 73 72 74 71 74 72 70 71 70 70 71 73 71 73 73 74 74 74 74 73 73 73 72 72 72 72 72 71 70 69 69 65 67 72 73 74 74 73 68 66 66 67 67 68 68 68 69 71
71 70 70 70 70 71 70 71 71 70 72 73 73 72 71 72 69 70 69 69 70 69 69 70 71 72 71 73 73 74 74 74 74 74 73 72 72 72 71 71 72 70 69 68 65 64 65 66 70 74 73 68 66 66 66 66 67 67 67 69 68 73
71 70 68 68 69 70 70 70 70 69 70 70 70 70 69 69 69 69 69 68 68 69 69 69 74 74 73 71 72 73 74 74 74 73 73 71 71 71 70 70 69 67 65 63 63 65 65 66 67 67 66 66 66 66 66 66 67 67 67 71 67 74
71 69 68 69 69 69 69 69 68 68 69 68 68 68 68 68 69 68 68 68 68 68 68 68 68 68 68 68 67 68 68 68 68 68 69 65 65 65 64 62 63 63 61 62 63 64 66 66 66 66 65 66 66 66 66 67 67 67 67 68 69 73
70 68 68 68 68 70 69 68 68 69 68 69 68 68 67 68 67 68 68 68 68 67 67 67 67 67 67 67 66 66 66 66 66 66 66 64 64 63 62 63 64 64 62 63 63 64 66 66 66 66 66 66 66 66 66 66 67 67 67 67 70 72
68 68 68 68 69 68 68 68 68 68 68 68 68 68 68 68 67 67 67 68 67 66 66 66 66 67 67 67 66 66 65 65 65 65 66 64 64 64 64 64 63 64 63 65 65 65 65 65 66 67 66 66 66 66 66 66 67 67 66 67 71 72
68 68 67 68 67 67 67 67 69 69 68 69 67 67 66 66 67 67 68 68 68 66 66 66 65 66 66 66 66 65 65 64 65 65 65 64 64 63 63 63 63 63 65 65 66 65 65 65 66 67 66 66 66 66 66 66 66 66 66 67 69 72
67 68 67 67 66 66 67 68 68 67 67 69 66 66 66 67 67 67 67 67 68 66 66 65 65 65 65 65 65 65 64 64 65 65 64 64 64 63 63 63 63 63 63 64 64 65 65 65 65 66 66 66 66 66 65 65 66 66 66 67 68 71
67 67 66 66 66 66 66 66 66 67 67 67 65 65 67 66 66 67 67 67 68 67 66 65 64 64 65 64 64 65 64 64 65 64 64 63 63 63 62 63 63 64 64 64 65 65 65 65 65 65 65 66 65 65 65 66 65 66 66 67 67 70
67 67 66 66 65 65 66 65 66 67 67 65 66 66 66 66 66 67 67 67 67 67 66 65 65 64 64 64 64 64 64 64 63 63 63 63 63 63 62 63 63 63 63 63 64 65 64 64 64 66 65 66 65 65 65 65 66 66 67 66 67 68
67 66 66 65 65 65 65 66 66 66 66 66 66 66 66 66 67 66 67 67 67 67 66 65 65 64 64 63 63 63 64 63 63 63 63 63 63 63 63 63 64 63 63 63 63 63 64 64 63 65 65 65 65 65 65 65 65 65 66 66 66 66
67 66 65 65 65 64 65 66 66 66 65 66 65 65 65 64 65 65 66 67 66 66 66 65 64 65 64 63 63 63 63 63 63 64 63 63 63 63 63 63 63 63 63 63 63 63 64 63 63 64 65 65 65 65 65 65 65 65 65 65 65 66
66 65 65 65 65 64 65 65 66 65 66 65 64 64 65 65 66 65 66 67 66 66 65 65 65 64 63 63 63 63 64 64 64 64 63 63 63 63 63 62 62 63 64 63 62 62 63 63 63 64 65 65 65 64 64 65 64 64 64 64 65 65
67 65 66 64 64 64 65 65 65 65 64 64 64 64 65 66 66 66 66 66 66 66 65 65 65 64 63 64 63 63 64 65 65 64 63 62 63 62 62 62 62 62 62 62 62 63 63 63 63 63 63 64 64 64 64 64 65 65 64 64 65 65
66 65 64 64 64 64 64 64 64 65 64 64 64 64 64 65 65 65 66 66 66 66 65 65 65 64 63 63 63 63 64 65 64 63 62 62 63 62 62 62 62 63 61 61 62 62 63 63 63 62 62 63 62 63 63 63 64 64 63 64 64 64
65 65 64 64 64 63 63 63 64 64 64 64 64 64 64 64 65 65 65 65 65 66 64 64 64 63 63 62 62 63 64 65 64 62 62 61 61 62 62 62 62 63 63 61 62 62 62 62 63 63 63 62 62 63 63 62 62 63 63 63 63 63
66 65 64 63 63 63 63 63 63 63 64 63 63 63 63 64 64 64 64 64 64 65 64 63 63 63 62 63 63 63 64 64 63 62 61 61 61 61 61 62 61 61 63 63 62 62 62 62 63 63 62 62 62 62 62 63 64 64 62 62 62 62
65 65 64 63 63 63 63 62 62 63 62 62 62 62 63 63 63 64 64 64 64 65 65 63 63 63 62 64 63 64 64 63 63 62 61 61 61 61 61 61 62 61 63 63 62 62 62 63 63 63 62 62 63 62 63 63 62 62 62 63 66 64
64 65 65 64 64 63 63 63 63 63 63 63 63 64 62 63 64 64 64 64 64 63 65 65 64 63 63 64 63 63 63 63 63 62 61 61 61 61 61 61 62 62 62 63 64 63 62 62 62 62 62 62 62 63 63 62 63 63 63 63 63 62
64 65 64 63 63 63 62 62 63 63 62 63 63 63 64 63 64 64 65 65 66 64 64 66 65 64 63 65 64 63 63 63 63 62 61 61 61 61 62 62 62 63 62 62 62 63 63 63 62 60 60 60 61 62 64 63 62 62 62 62 62 61
64 64 64 64 64 64 63 63 63 63 62 63 64 64 63 63 63 64 64 65 66 64 64 65 65 65 64 63 62 63 63 63 63 61 61 61 61 63 62 62 63 61 61 62 61 62 63 63 60 59 58 58 60 61 61 61 62 63 62 62 61 61
64 64 64 64 64 63 63 63 64 63 62 62 65 65 65 63 64 63 63 64 65 64 64 65 65 65 64 63 62 62 63 63 63 63 61 61 62 61 61 62 63 62 60 61 61 62 61 60 59 59 59 59 55 56 59 60 61 61 61 61 62 62
63 64 64 64 63 62 63 62 62 62 62 62 62 63 63 63 63 63 64 65 65 65 65 65 65 64 63 63 62 62 63 63 63 62 62 61 61 61 61 61 62 63 63 60 59 60 61 59 61 61 58 55 55 54 54 56 57 59 61 62 62 62
63 63 64 64 62 62 62 61 61 62 62 62 62 61 62 61 63 64 64 64 64 64 64 64 64 63 63 63 63 63 62 63 63 62 62 62 61 61 61 62 62 62 63 62 58 57 60 60 61 60 60 56 55 56 52 56 56 58 59 61 62 63
63 63 63 63 62 62 62 61 61 61 60 58 58 59 58 61 62 63 63 62 63 64 64 64 63 62 63 63 62 62 63 63 63 62 62 62 62 62 61 61 62 63 62 63 62 59 59 60 59 60 60 60 59 57 56 56 55 53 59 59 61 62
63 62 62 61 62 62 60 61 61 61 61 60 59 56 57 59 62 60 61 61 62 62 63 63 62 61 61 62 62 62 63 63 63 62 63 62 62 62 62 63 62 62 63 62 63 60 60 59 60 60 59 59 60 59 62 59 54 54 54 57 59 58
62 61 61 60 61 61 61 60 60 60 60 59 60 59 58 58 58 60 59 60 60 60 61 61 61 61 60 62 61 61 62 63 63 62 62 62 62 62 62 63 62 62 61 62 62 61 60 60 62 60 59 59 59 60 59 57 61 60 57 54 54 59
61 60 59 60 60 60 61 60 60 60 60 58 59 59 59 59 58 58 58 57 58 58 58 58 59 60 60 60 62 61 61 61 62 63 64 62 62 63 63 62 61 61 61 61 62 62 62 61 60 59 58 58 58 58 58 58 56 57 56 55 54 56
59 59 59 59 60 59 60 61 60 60 59 58 58 57 58 57 56 57 57 56 56 57 57 57 57 58 59 60 61 61 60 61 61 62 63 62 62 62 62 62 62 61 61 61 61 62 62 61 60 59 60 59 58 58 59 60 57 57 59 58 56 55
58 58 59 59 59 58 59 60 60 60 59 57 56 57 57 56 55 56 57 55 55 55 56 56 57 57 57 57 58 61 60 60 61 63 62 62 62 62 62 62 61 61 61 61 60 61 61 60 60 60 60 61 61 62 60 58 58 58 58 55 55 55
57 58 58 58 58 58 59 59 60 60 59 58 58 58 58 56 56 56 55 55 55 56 56 56 56 56 57 57 58 58 59 59 60 61 61 61 62 62 62 61 60 61 60 60 60 60 60 59 60 60 60 61 61 62 61 61 61 60 60 58 58 56
57 57 58 58 58 58 59 59 60 60 59 58 58 58 58 57 55 56 56 56 56 56 56 58 58 58 57 57 57 57 58 59 59 60 60 60 60 61 61 61 61 60 60 60 60 60 59 60 60 60 61 60 61 59 60 59 60 59 58 59 58 56
57 57 57 58 58 58 58 59 60 60 59 59 58 58 57 57 56 56 57 57 57 57 57 58 57 57 56 57 57 57 58 58 58 59 59 59 59 60 60 61 60 60 60 60 59 59 59 59 60 61 60 59 60 59 58 59 59 60 59 59 58 58
58 57 57 58 58 58 58 58 59 59 59 59 58 57 57 58 57 57 56 57 57 56 58 57 57 57 57 56 56 57 57 57 58 58 58 59 59 59 60 60 61 60 59 59 59 59 58 58 59 58 59 60 59 58 58 58 59 61 63 62 60 58
59 58 57 58 58 58 57 58 58 58 58 58 59 57 57 58 57 58 57 58 57 56 57 56 56 57 57 56 56 56 57 56 57 58 58 58 58 59 59 59 58 58 57 58 58 58 57 58 59 58 59 58 60 59 58 58 60 60 62 62 61 59
58 57 57 58 58 58 57 57 57 57 57 57 57 57 58 57 57 57 57 57 57 56 56 56 57 56 55 54 54 56 56 56 56 57 57 57 57 57 58 58 57 56 56 56 57 57 56 58 58 58 58 59 60 59 57 58 59 59 59 60 61 60

ECMWFFLT2_sfc_temp_033.txt.gz
Temp
78 77 78 78 78 77 76 74 74 74 74 74 74 74 75 75 75 75 75 75 74 76 76 77 77 79 75 77 74 74 75 75 74 74 73 73 73 73 73 72 72 71 71 72 72 73 73 73 73 73 73 73 73 78 78 78 79 79 80 79 79 79
77 77 77 77 77 77 77 77 78 77 77 76 75 75 75 77 76 76 74 75 74 73 76 78 77 75 77 76 76 74 74 74 74 73 73 73 73 72 72 72 72 72 71 70 72 78 76 74 73 73 73 73 78 79 77 78 78 80 79 78 79 76
77 77 77 77 77 77 77 78 77 78 77 75 76 77 78 77 76 77 77 76 74 74 75 76 75 76 76 74 75 74 73 74 74 73 73 73 72 72 72 71 71 71 69 69 76 79 80 80 78 74 74 77 79 79 78 78 78 79 79 79 79 74
77 76 76 75 76 76 76 76 76 77 77 77 77 78 78 78 78 77 77 75 74 74 74 75 74 75 75 77 76 74 74 74 74 73 73 73 72 71 70 69 68 68 71 75 78 80 81 81 80 79 78 78 79 78 78 78 80 79 79 79 81 73
76 76 76 74 74 74 75 75 76 75 77 75 76 76 77 76 76 76 76 73 75 75 75 77 75 76 77 77 76 75 75 75 75 74 73 75 76 74 74 76 76 74 74 76 79 79 80 79 79 78 78 78 78 78 78 78 79 80 78 78 77 73
75 75 74 74 73 73 73 73 73 73 74 75 75 74 75 75 74 74 75 75 74 74 75 75 75 76 76 76 75 75 75 75 75 74 75 75 75 75 76 78 78 77 76 78 78 78 79 78 78 78 79 78 79 78 79 79 79 78 78 78 77 72
73 73 74 74 73 73 73 73 73 73 74 73 73 74 74 75 74 74 75 75 74 73 74 74 74 74 75 76 75 75 75 73 73 75 74 73 73 75 77 77 77 77 77 79 79 79 78 78 79 79 79 80 80 79 78 79 79 78 77 77 76 72
71 72 73 73 73 73 72 72 72 73 74 73 72 73 73 73 73 72 74 75 75 75 74 73 73 74 74 75 73 72 71 72 74 73 72 73 75 75 74 76 77 78 79 79 79 79 79 79 78 79 79 79 79 79 78 79 79 78 78 78 79 74
72 71 71 72 72 71 71 72 71 71 72 73 72 71 71 72 72 72 73 75 75 73 74 73 73 73 74 73 72 72 72 73 73 72 73 74 76 75 76 77 77 79 78 78 78 78 79 79 78 79 79 79 79 78 77 77 77 78 79 78 78 74
71 70 71 72 70 71 71 70 70 70 71 72 71 71 71 71 72 72 72 74 75 75 74 74 72 72 73 70 70 70 70 71 72 73 73 73 74 75 75 77 77 78 79 78 79 77 78 78 79 79 80 79 78 78 77 78 78 78 79 78 78 76
70 70 70 69 69 69 69 69 69 69 69 71 72 70 67 66 69 71 73 74 75 76 76 74 72 72 71 69 69 70 69 71 71 71 73 73 73 73 75 76 77 77 77 78 77 77 78 77 78 80 78 79 77 76 77 77 77 77 79 78 79 77
70 69 68 67 68 67 67 69 69 69 68 69 71 68 66 66 68 69 70 71 72 74 75 74 72 71 70 69 69 70 71 71 71 72 73 74 72 72 74 74 75 75 74 75 75 76 76 76 77 79 79 78 78 77 76 76 76 76 77 77 77 77
69 68 67 67 67 68 70 70 70 69 68 70 70 69 67 68 70 70 70 70 72 73 73 73 71 71 70 70 71 72 72 71 71 72 72 72 73 73 72 73 73 73 73 74 74 73 75 76 76 76 77 77 76 76 75 76 75 76 77 77 78 78
68 68 69 68 67 68 69 68 70 69 69 69 69 69 69 70 71 70 69 69 68 67 67 68 70 69 69 71 72 73 72 71 71 71 71 72 73 73 72 73 73 74 72 73 72 73 73 74 75 75 73 71 68 68 70 74 74 73 73 75 76 77
68 67 68 67 68 69 69 69 69 70 69 68 69 71 71 71 71 71 70 69 68 66 66 67 70 70 69 71 72 72 71 71 70 71 71 72 73 72 73 73 72 73 72 73 72 73 74 74 72 68 66 68 68 69 70 71 72 74 74 74 74 74
67 66 66 67 68 68 68 68 68 68 68 69 69 69 70 72 73 73 72 70 69 68 67 69 70 71 70 70 70 70 68 69 69 70 71 72 73 72 72 72 72 73 71 71 72 72 73 71 69 67 66 65 66 67 67 71 72 72 72 73 74 74
67 67 66 67 68 68 68 68 69 70 70 71 72 73 74 74 73 72 71 70 70 69 68 69 70 70 69 67 68 70 70 70 69 70 70 72 73 73 72 71 71 72 73 70 71 70 71 70 68 67 67 67 68 67 67 69 71 72 73 73 72 73
68 68 66 66 67 67 68 68 69 71 71 73 73 75 75 75 73 72 72 72 71 70 69 70 70 70 70 71 72 71 71 69 69 71 72 72 73 73 72 72 70 71 73 72 70 69 68 71 70 69 68 68 68 68 68 70 72 71 72 72 72 71
68 67 67 67 68 68 68 68 70 71 71 72 73 73 74 74 74 73 73 73 72 72 71 71 71 71 72 72 71 70 69 68 69 72 72 72 71 70 71 71 71 70 71 71 70 70 69 71 71 70 68 68 69 69 70 71 71 72 72 72 73 72
67 67 68 68 68 68 68 68 67 68 69 70 71 71 72 73 72 73 73 73 72 72 73 72 73 73 72 70 69 69 68 68 70 72 71 70 70 70 70 70 71 71 69 69 71 70 70 70 68 67 66 68 69 71 72 72 72 73 71 70 71 72
65 67 67 67 67 68 67 67 68 69 69 70 70 71 71 71 72 73 73 74 73 73 73 71 72 73 71 70 70 69 69 69 70 72 72 70 71 71 71 71 70 71 70 68 68 70 67 67 65 64 66 66 68 70 70 70 69 69 68 65 70 69
65 66 67 67 68 67 70 70 69 69 71 70 70 70 70 71 71 71 72 72 72 73 72 72 72 72 71 71 69 68 69 68 69 71 72 71 71 71 71 71 71 70 71 69 68 68 66 67 65 63 62 62 64 66 66 69 70 71 71 72 70 70
65 66 65 67 68 68 69 70 70 70 71 71 74 74 75 74 74 74 72 72 70 70 71 71 71 72 72 71 69 68 68 68 69 70 69 69 70 70 70 71 72 70 67 69 69 71 70 70 66 67 67 66 63 60 62 65 68 69 70 69 70 69
66 66 66 67 67 69 68 69 70 71 71 72 71 71 71 72 72 72 70 70 71 71 71 70 71 73 73 72 70 69 68 68 69 70 70 68 69 70 70 71 72 71 71 66 68 68 70 70 69 69 62 65 64 64 60 62 64 66 69 69 69 68
66 65 66 65 66 68 68 68 69 70 71 70 70 69 70 69 69 70 69 68 70 72 72 71 71 71 71 70 70 70 69 69 69 70 71 70 69 70 72 73 72 71 71 69 68 68 68 68 69 70 71 65 63 64 64 63 65 64 68 68 69 69
66 66 66 67 67 67 68 68 68 68 68 68 67 67 67 67 67 67 69 69 70 71 70 70 70 69 70 70 69 69 68 69 69 68 70 71 71 71 71 72 73 72 71 72 71 69 68 69 69 68 68 69 70 67 65 67 67 60 66 68 67 68
66 66 66 67 67 67 68 69 70 70 71 70 68 68 71 70 69 69 69 67 68 67 68 67 68 69 69 70 70 68 68 69 70 70 70 70 71 71 73 74 74 73 73 72 71 69 68 68 68 69 69 69 70 72 72 68 65 65 61 65 66 65
65 66 66 66 67 68 68 70 70 71 72 71 71 70 69 68 67 67 66 66 67 66 67 69 69 69 70 71 70 68 69 69 69 70 70 71 71 72 73 74 72 73 71 71 70 70 69 68 66 67 69 70 70 72 73 72 73 70 66 62 61 64
64 65 65 66 68 69 71 71 71 71 70 71 71 71 71 70 68 67 66 66 67 68 68 68 69 69 71 72 71 69 69 70 69 69 71 71 71 72 71 71 70 70 70 70 71 69 66 64 66 65 66 67 70 71 72 71 71 72 68 64 62 61
64 65 65 66 68 70 71 72 71 70 69 69 70 70 72 70 70 70 68 67 68 69 70 70 70 70 69 72 72 72 70 70 70 69 70 70 70 68 69 69 69 68 69 69 70 69 69 67 69 68 69 69 69 69 70 69 70 69 70 70 65 63
64 65 66 67 69 69 71 71 71 70 70 69 69 69 70 69 70 70 69 69 70 70 71 71 71 71 70 70 69 71 70 70 71 70 70 72 71 71 70 68 68 68 68 68 67 67 68 70 69 70 70 72 71 71 69 68 68 70 69 66 65 64
64 65 66 68 69 69 70 70 71 71 70 70 69 70 70 68 69 69 69 69 70 70 70 70 70 70 69 70 70 70 69 70 71 71 71 72 72 73 70 70 67 67 67 66 66 65 66 68 69 71 71 73 68 69 71 73 73 72 70 69 68 65
64 66 66 67 68 69 69 70 70 70 70 70 71 71 70 69 70 70 70 70 70 70 70 70 70 70 70 69 70 69 69 70 71 71 72 72 72 72 71 71 68 66 66 65 66 68 66 67 70 70 72 72 68 69 71 74 74 73 73 72 70 66
64 66 67 68 69 68 69 70 70 71 70 70 70 70 71 70 70 71 71 71 71 71 71 71 71 71 70 70 70 70 70 70 72 73 72 71 72 72 71 71 68 67 68 68 68 67 68 71 71 71 73 72 72 70 72 73 74 73 71 71 69 68
65 66 67 68 68 69 69 69 70 71 70 71 71 71 71 71 70 70 70 71 71 72 72 72 72 71 70 70 69 69 69 69 70 71 72 71 71 71 71 70 70 69 70 71 70 70 71 70 70 70 70 72 72 72 72 74 74 74 75 73 71 68
67 67 67 68 69 69 69 69 69 69 69 70 71 71 70 70 71 71 70 71 70 70 71 71 70 70 69 70 69 69 70 70 70 70 70 70 71 72 72 71 71 71 70 71 70 69 70 70 70 70 70 71 72 73 72 73 75 75 77 75 73 71
67 67 68 68 69 69 69 68 68 69 69 69 69 69 69 69 69 69 70 70 71 70 69 71 70 69 68 69 69 70 71 70 70 70 70 70 71 71 71 71 71 70 70 70 71 71 71 71 71 70 71 70 72 72 72 72 73 74 74 74 74 73

ECMWFFLT2_sfc_temp_036.txt.gz
Temp
83 82 82 82 81 81 78 75 75 74 74 74 75 75 75 75 75 76 76 75 75 79 79 77 78 81 76 78 74 74 74 75 74 74 74 74 74 74 74 73 73 72 73 73 73 73 73 73 73 73 73 74 73 81 85 85 85 85 85 84 82 81
83 83 82 82 82 81 79 78 81 79 80 78 76 76 78 80 78 80 76 78 79 79 80 78 78 77 78 76 76 74 74 74 74 73 73 73 73 73 73 73 72 72 72 73 73 79 77 74 73 73 73 73 78 86 84 85 86 85 85 83 81 77
83 83 82 82 82 82 81 82 82 82 81 78 79 79 81 78 82 81 81 81 78 79 78 73 72 77 77 74 76 74 74 74 74 73 73 73 73 72 72 72 72 72 71 71 77 81 82 82 79 74 74 77 86 84 84 84 85 85 83 81 81 74
84 83 83 83 82 83 82 82 83 81 81 80 79 79 77 79 80 81 78 78 77 77 71 74 74 74 74 76 76 74 73 74 74 73 73 75 73 72 71 70 71 71 72 77 82 80 86 84 82 81 83 85 85 84 85 85 88 85 83 83 83 73
83 83 82 82 82 83 82 83 83 82 81 79 77 75 76 79 80 77 75 75 77 77 76 75 74 74 76 78 80 79 78 78 77 77 74 78 77 77 78 80 77 77 80 81 84 84 85 84 84 85 84 85 84 84 85 85 85 85 84 82 78 73
83 82 82 82 82 82 80 82 82 82 82 80 73 72 71 77 72 74 71 75 76 75 77 73 72 73 77 82 81 81 81 79 78 77 77 76 77 77 80 83 83 83 82 83 84 84 84 84 84 84 85 84 83 83 86 86 84 81 83 82 77 73
81 81 81 82 81 82 82 83 82 83 82 81 77 73 75 71 74 73 71 72 72 72 71 77 78 80 80 82 81 82 81 80 80 79 77 77 77 79 81 83 84 82 80 83 86 85 85 85 85 87 86 86 85 85 84 85 85 83 83 82 77 72
82 80 80 80 81 81 81 81 81 76 80 79 80 79 74 73 72 70 69 71 71 72 72 78 79 79 80 81 81 80 80 80 79 79 78 79 79 82 83 84 82 81 82 85 86 85 86 86 85 86 86 85 84 84 84 85 84 83 83 82 80 74
82 80 80 79 80 80 80 80 80 80 80 76 77 76 76 71 72 72 74 75 79 74 72 78 79 80 82 80 79 78 78 78 77 77 79 81 83 81 81 83 82 83 84 85 85 84 86 86 85 85 85 85 85 85 83 83 83 84 84 81 80 75
81 81 80 78 78 77 78 77 77 77 73 73 73 73 73 76 73 72 71 72 75 78 78 78 79 81 81 78 78 78 78 78 77 78 79 79 81 81 81 82 83 85 87 85 85 85 85 85 86 85 85 85 84 84 83 84 84 85 84 82 80 76
79 78 79 77 75 74 75 75 75 74 72 71 72 71 69 71 73 70 69 68 70 76 78 79 79 80 79 78 78 77 76 77 77 78 78 78 78 79 82 83 84 85 85 86 85 85 86 83 84 86 85 86 84 83 83 83 84 84 85 83 81 77
77 76 76 77 75 74 74 75 75 75 70 71 70 71 69 69 71 71 72 71 71 72 74 75 76 78 78 78 78 77 76 75 75 77 80 79 78 80 82 83 84 83 83 84 84 84 83 82 83 85 85 84 84 83 83 83 82 82 84 83 82 81
75 73 73 74 75 76 72 72 73 73 72 71 71 69 68 69 71 71 74 73 71 70 70 71 73 76 78 78 78 76 75 75 75 76 76 77 78 80 81 80 80 81 81 82 82 82 83 81 81 82 83 83 82 83 83 84 82 83 83 82 82 82
72 72 73 73 73 71 71 70 70 72 72 72 71 69 68 69 71 76 71 73 73 74 74 74 76 75 76 76 75 75 74 75 76 75 76 77 79 80 80 80 79 81 80 81 80 81 81 80 81 83 81 81 81 80 81 82 82 81 81 82 80 79
70 72 72 72 72 73 70 70 72 76 75 75 74 74 71 69 69 71 73 75 75 72 73 74 75 74 73 74 73 74 74 75 76 76 78 79 80 79 80 80 82 80 79 80 81 80 79 78 78 77 77 79 78 79 79 79 80 81 81 79 77 77
71 71 73 74 74 72 71 72 73 74 74 75 73 72 69 70 69 70 71 76 76 74 72 75 75 73 68 69 73 75 75 74 75 77 79 78 78 79 80 79 79 78 77 78 79 78 78 77 75 74 75 76 77 77 78 79 78 78 78 77 77 76
72 71 71 71 70 69 68 70 73 73 73 73 73 73 71 70 69 68 69 73 76 75 75 76 74 71 70 70 76 76 75 74 76 78 78 77 78 80 78 77 77 78 78 75 76 75 75 75 74 73 74 75 75 74 75 76 77 76 76 76 75 77
71 73 71 68 68 69 68 70 72 73 71 73 75 76 71 69 71 70 73 76 74 74 75 76 75 73 72 75 75 75 75 75 77 77 77 78 78 80 79 77 76 77 78 77 75 74 72 73 74 74 74 75 73 73 72 74 76 75 76 76 76 77
68 70 72 68 68 70 71 70 70 72 71 70 71 74 69 69 71 74 74 72 73 73 75 76 75 74 72 72 74 74 76 76 77 78 77 77 78 78 77 77 76 75 76 77 76 73 72 73 75 75 75 74 75 74 75 76 77 78 77 77 77 78
67 69 71 70 68 67 69 68 67 68 67 68 67 72 77 76 71 69 73 71 69 70 75 72 70 71 68 73 77 76 75 76 77 78 77 76 76 77 76 75 76 75 74 75 74 67 71 74 74 73 71 72 72 72 73 73 76 76 75 76 77 78
68 69 67 70 69 69 68 66 68 70 68 67 69 75 76 77 77 77 78 80 79 73 74 73 71 69 74 76 76 76 75 76 78 79 77 76 76 76 76 76 76 76 74 72 72 69 72 75 71 67 67 64 65 67 69 70 73 74 74 76 78 77
68 67 66 68 69 69 72 72 70 72 71 69 75 75 76 76 76 78 78 78 77 75 72 74 74 76 77 77 76 76 76 76 77 78 77 77 77 76 76 75 75 74 76 73 71 73 73 73 70 65 63 61 64 67 67 66 73 75 76 78 77 76
68 67 66 68 67 67 69 71 74 73 67 76 80 79 81 79 80 80 77 78 76 77 77 78 77 77 76 77 76 75 76 76 77 77 76 76 76 75 75 75 75 74 73 75 74 74 71 73 70 71 69 65 60 59 63 68 73 74 76 76 77 78
68 66 67 69 69 68 68 70 74 74 73 77 78 78 78 78 79 79 77 77 77 77 78 78 79 78 78 77 75 75 76 76 77 77 76 75 75 75 75 75 75 75 74 71 72 70 71 73 74 69 60 63 62 63 60 64 68 71 76 76 77 77
69 67 70 69 69 68 69 71 72 73 75 75 77 77 77 77 77 78 78 77 78 78 78 77 78 79 80 77 76 76 75 76 76 76 76 76 76 75 76 76 76 75 75 71 71 69 70 74 71 70 66 63 60 61 64 66 69 68 73 74 75 76
69 69 69 71 71 69 69 70 70 69 70 72 73 73 73 74 75 76 78 78 78 78 78 76 78 79 80 77 75 75 76 76 75 75 75 76 78 77 77 78 77 76 75 75 74 70 69 71 73 70 69 71 70 64 63 68 66 63 71 74 75 76
70 70 72 72 72 71 69 69 72 73 74 74 74 75 77 77 77 78 78 76 77 76 78 77 77 78 78 78 77 76 76 76 75 75 75 75 76 77 79 81 80 78 76 74 70 66 67 68 70 71 74 74 73 70 74 69 64 66 64 68 73 71
71 71 72 72 71 73 71 72 73 75 76 76 76 75 76 76 77 77 76 75 76 75 76 76 76 77 78 78 77 76 76 75 75 76 75 76 76 78 79 80 77 77 76 76 71 66 67 68 63 64 73 73 74 76 75 75 77 72 68 64 64 70
69 70 71 71 71 73 73 75 75 76 75 78 78 77 77 76 75 75 73 74 74 76 75 76 77 77 77 78 76 76 76 76 75 76 76 77 77 79 77 76 75 75 74 74 71 70 69 68 67 69 71 72 75 76 75 76 73 69 71 67 66 66
69 70 71 71 72 73 75 76 76 76 75 76 77 77 77 74 74 74 73 74 75 75 76 76 77 78 78 79 77 77 76 76 75 76 76 77 77 76 76 76 75 75 74 74 73 72 71 72 74 71 73 69 73 74 74 74 75 75 75 74 68 69
71 71 71 70 72 73 75 76 76 76 75 75 75 75 75 74 75 74 73 73 74 76 77 77 77 76 77 78 77 77 76 76 76 76 76 78 76 77 76 75 75 74 74 73 73 73 73 74 74 75 68 70 70 73 71 68 72 74 74 71 70 69
70 70 70 72 73 74 76 76 77 77 76 76 76 76 74 74 75 76 75 75 76 76 76 77 76 76 76 77 76 77 75 75 76 75 76 78 78 78 77 77 76 74 74 73 74 73 73 73 74 75 74 67 68 68 67 64 65 73 74 72 71 70
69 70 71 72 73 75 75 76 77 77 77 77 76 77 76 76 76 76 76 76 76 76 76 75 76 76 76 76 77 76 76 75 74 75 75 76 76 78 76 76 75 74 74 73 74 74 74 73 73 72 69 71 71 72 68 71 66 67 74 73 73 70
69 71 72 73 74 75 75 76 77 77 77 77 77 77 77 77 77 78 78 76 77 77 77 76 76 76 77 78 78 77 76 76 77 76 75 75 75 76 76 77 74 74 74 74 74 73 73 73 72 72 67 66 70 72 74 76 72 74 73 74 73 72
70 71 72 74 74 75 76 76 77 78 78 78 78 77 78 78 78 78 78 77 77 78 77 77 77 77 78 77 77 77 76 76 77 76 76 76 76 76 75 76 74 73 74 76 75 74 74 73 72 71 66 65 66 70 72 74 70 78 80 77 76 73
73 72 73 74 75 75 76 76 77 77 77 77 78 78 78 79 78 78 78 78 77 77 78 78 78 77 77 77 76 77 77 77 77 77 76 76 76 76 74 75 74 73 73 76 74 73 74 73 71 70 68 65 66 70 73 73 77 80 81 79 77 76
74 75 75 76 76 76 76 76 76 77 77 77 77 77 77 77 77 77 77 77 77 77 77 77 76 77 76 77 77 77 78 77 76 76 76 76 76 76 76 75 73 72 71 75 75 76 72 72 71 73 72 73 67 68 74 74 80 80 77 76 78 77

ECMWFFLT2_sfc_temp_042.txt.gz
Temp
79 78 78 77 77 76 75 75 75 75 75 75 76 75 75 76 76 76 76 75 75 76 76 75 75 76 75 75 74 74 75 75 75 75 75 74 74 74 74 74 74 73 73 73 73 73 73 73 73 73 74 74 75 73 76 79 78 76 75 74 73 73
78 78 78 78 77 77 75 76 76 75 76 76 76 75 76 76 76 75 76 75 75 75 73 74 75 77 75 75 75 75 75 75 74 74 74 74 74 74 74 74 74 74 74 73 73 72 72 73 73 74 73 74 73 74 77 78 77 76 75 73 72 72
79 79 79 79 78 77 76 77 77 76 76 76 76 76 77 78 77 77 77 77 74 73 74 73 72 75 75 75 75 75 75 75 75 75 74 74 74 74 73 73 74 74 73 73 73 74 74 74 74 75 74 73 72 76 79 79 77 76 75 74 72 74
80 79 79 78 78 77 77 77 77 77 77 76 76 78 78 78 78 77 77 74 72 73 72 72 74 75 75 74 74 74 74 75 75 75 74 74 73 73 73 73 73 73 72 74 74 75 77 76 75 74 74 74 76 79 79 79 78 76 75 75 74 74
80 79 78 75 74 77 77 77 78 78 77 77 77 77 77 75 74 75 74 73 73 72 72 71 71 71 72 73 73 73 73 74 74 74 73 73 72 75 72 74 72 72 74 74 76 76 75 75 74 74 75 76 79 79 80 78 77 76 74 73 72 73
79 75 74 72 72 76 78 76 77 77 77 77 76 72 72 73 73 72 72 71 71 70 70 70 70 69 70 72 72 72 73 73 74 73 73 73 73 74 74 76 76 74 75 76 75 76 74 71 70 70 71 76 77 79 79 79 77 74 73 72 72 73
72 72 71 71 71 72 72 73 75 75 74 72 72 71 71 72 71 71 71 71 70 69 69 69 69 69 69 72 72 73 73 74 74 74 74 74 74 74 74 75 75 75 76 77 77 76 72 71 70 70 70 75 79 79 78 79 76 75 73 72 72 73
69 71 71 70 70 71 72 74 74 74 72 72 71 70 70 70 71 69 70 70 71 70 69 69 70 69 70 70 71 72 74 75 75 74 75 76 76 75 75 75 76 78 79 79 78 74 72 71 70 69 71 72 72 72 75 78 77 75 74 72 72 72
70 71 69 69 70 71 72 73 71 72 71 73 70 71 70 70 70 70 70 70 72 70 70 70 70 70 70 70 70 70 71 74 75 76 76 75 77 75 75 76 75 77 76 77 74 72 72 71 69 69 69 68 69 72 72 75 76 76 74 72 72 71
71 70 69 69 69 70 71 70 71 72 72 70 71 72 70 69 70 70 70 71 72 71 70 69 69 70 70 69 69 69 69 70 74 75 75 74 75 75 74 74 76 77 80 78 73 73 72 72 73 72 71 70 69 70 72 72 77 75 74 73 71 71
70 71 69 69 68 68 70 70 71 72 73 72 72 73 70 70 70 71 72 72 72 71 70 70 70 69 69 69 69 69 70 72 74 76 75 75 76 75 76 75 77 76 77 79 74 72 73 71 70 70 73 73 71 69 73 73 75 75 74 72 72 71
70 70 70 68 68 67 69 70 71 71 70 70 71 71 71 71 70 71 72 72 71 71 71 70 70 69 69 68 69 71 74 74 74 75 76 77 76 75 76 77 79 78 77 75 73 72 70 69 72 71 76 71 69 68 71 72 73 74 73 73 73 72
72 72 70 68 68 67 69 70 71 71 69 69 70 70 70 70 70 71 72 72 72 72 71 69 69 69 69 68 70 72 73 74 75 74 73 76 76 75 75 74 73 75 74 73 70 69 72 69 69 71 72 71 70 68 69 71 74 74 73 73 73 72
72 71 71 69 68 68 68 69 72 70 68 68 68 67 68 69 69 70 71 71 71 72 70 69 70 68 69 70 70 71 73 73 74 74 75 73 72 74 73 73 74 75 72 71 70 70 69 66 70 69 69 69 67 67 68 70 73 72 71 70 70 71
72 71 70 70 69 69 69 71 71 70 69 69 68 67 68 69 69 70 70 69 70 70 70 70 71 70 70 71 71 71 72 72 73 74 74 74 72 73 73 74 73 71 69 68 69 69 71 70 70 68 67 66 66 67 66 68 72 72 72 71 70 69
72 71 70 71 72 71 72 71 70 70 67 68 68 68 68 69 69 69 69 69 70 70 70 70 72 73 71 72 72 71 71 71 73 73 73 73 72 70 72 71 71 71 68 68 68 69 70 70 68 66 67 66 66 66 66 67 70 71 71 71 70 69
71 72 72 71 73 73 72 71 70 68 68 68 68 68 68 69 69 69 69 69 69 69 69 69 68 71 72 72 72 71 72 73 73 72 71 70 72 71 68 69 69 71 70 67 68 69 66 68 66 66 65 66 67 66 66 67 69 69 70 70 70 70
72 73 73 73 72 72 72 71 70 70 68 68 68 69 68 68 68 68 68 68 69 68 68 69 69 69 66 67 71 72 73 73 73 72 70 69 70 71 69 68 67 69 70 69 69 68 65 66 67 66 66 65 66 67 67 67 69 69 68 68 68 68
72 72 73 74 72 72 71 71 71 70 67 67 68 68 68 67 67 68 68 69 69 68 68 68 69 68 67 66 69 73 73 73 73 70 69 70 68 67 68 68 68 67 69 70 69 65 65 66 67 66 66 66 68 68 67 67 68 67 67 68 68 68
72 73 74 73 72 71 71 70 69 70 68 67 67 67 67 67 67 68 69 68 69 68 68 68 68 67 66 68 71 72 72 74 72 70 69 69 67 66 67 66 67 68 67 69 69 65 66 65 65 65 65 66 67 67 67 66 66 66 67 67 67 66
72 73 73 72 71 72 71 70 70 70 67 67 68 68 67 66 67 67 70 69 68 68 68 69 69 69 70 70 70 70 70 71 70 69 69 69 67 67 67 66 66 67 67 67 66 66 66 66 64 62 64 65 65 67 67 68 67 66 66 66 66 66
72 72 73 73 72 71 72 72 70 70 70 68 70 69 67 66 66 68 68 69 68 68 68 68 68 69 71 71 70 70 70 69 68 67 67 69 69 66 67 67 68 65 68 67 65 66 66 66 63 62 61 60 62 64 66 66 67 67 65 68 68 67
73 72 73 74 73 72 73 74 72 70 71 71 75 73 71 70 68 69 69 69 68 67 68 67 69 70 72 72 71 70 69 68 68 68 67 66 66 65 66 66 67 66 64 66 65 65 65 67 64 65 64 61 58 58 61 63 65 66 67 67 68 68
72 72 73 74 73 74 74 74 74 73 73 72 69 70 70 70 69 69 68 69 68 70 70 70 71 73 73 72 71 70 70 69 69 70 68 66 66 64 65 66 66 67 66 63 64 64 67 67 67 65 60 60 60 60 56 58 62 64 66 68 66 66
72 72 74 73 73 73 72 72 72 72 71 69 70 69 68 67 68 68 68 67 68 71 71 71 72 74 73 71 70 70 70 70 70 70 71 69 66 65 65 65 66 67 66 65 64 64 65 66 67 67 64 62 59 58 58 60 63 62 65 65 65 65
73 73 73 74 73 72 71 70 69 68 67 67 66 66 65 65 66 66 66 68 70 71 72 71 71 72 73 71 70 70 70 71 70 70 70 70 69 66 65 65 66 66 66 67 65 65 62 65 67 68 67 66 64 61 60 63 63 56 64 66 64 64
74 73 74 74 73 72 72 71 70 70 69 68 66 67 69 69 67 68 68 67 68 70 72 71 71 72 71 72 71 71 71 71 72 71 72 71 69 66 66 67 66 67 67 68 67 64 63 64 66 66 66 67 67 66 67 64 59 61 57 62 66 66
73 72 73 73 73 73 72 71 71 71 70 70 69 68 68 68 69 69 68 68 68 69 72 73 72 73 73 73 72 72 72 72 72 74 73 72 70 70 69 70 69 71 69 67 64 64 65 65 63 62 65 66 67 69 68 67 68 64 61 58 61 67
72 72 72 73 73 74 73 72 71 72 70 71 71 70 70 69 68 68 67 68 68 69 71 73 75 74 73 74 73 73 73 73 71 72 74 74 71 71 71 68 68 67 67 67 66 67 66 65 65 63 64 63 65 64 66 66 65 66 62 60 60 62
72 72 72 73 73 73 73 72 71 71 70 69 70 70 69 67 66 66 66 65 66 65 68 71 71 74 74 74 74 74 73 73 72 73 74 71 71 70 69 69 69 69 69 66 66 67 66 65 65 66 66 64 62 62 62 63 64 62 61 62 61 62
72 73 73 72 73 72 73 72 72 72 71 70 70 69 67 66 66 64 65 65 65 65 67 70 70 72 71 73 74 74 73 74 73 73 73 71 69 70 69 67 67 68 68 68 67 65 65 65 65 65 66 65 63 63 62 61 61 61 61 58 59 63
72 73 72 72 72 72 73 73 73 72 72 70 70 69 65 65 66 65 66 65 65 65 68 71 71 72 72 72 72 71 73 73 73 73 72 70 68 68 70 68 66 66 68 68 66 65 65 64 65 65 66 65 64 65 64 63 63 63 61 61 62 63
72 73 73 73 72 72 72 73 72 72 71 70 70 70 68 68 68 66 66 66 66 66 70 70 70 71 71 73 72 71 70 69 70 70 71 70 68 68 69 68 66 67 67 67 66 65 65 65 65 65 65 66 66 66 65 64 65 64 63 63 64 63
72 72 73 72 72 72 72 73 72 71 70 69 68 68 70 72 71 70 69 69 71 70 70 71 71 71 72 74 73 73 71 70 70 70 71 71 71 71 69 69 69 68 67 67 66 65 65 65 65 66 67 65 66 66 64 64 65 65 64 63 62 64
71 72 72 72 72 72 72 73 72 72 70 70 69 69 71 73 73 72 73 73 72 72 71 72 72 72 74 73 73 73 74 73 72 70 72 71 70 69 68 68 67 68 66 66 67 65 65 65 66 66 67 66 67 66 65 64 66 67 68 66 66 66
72 72 72 72 72 72 73 73 73 71 71 71 70 71 72 73 73 73 73 73 72 72 73 72 73 73 73 74 73 73 74 73 73 72 72 72 70 68 69 66 67 67 66 69 66 65 64 65 65 65 66 66 66 66 66 65 67 68 69 69 68 67
73 73 73 73 72 73 73 72 72 72 72 72 71 72 72 73 73 74 74 73 73 73 73 72 73 74 73 74 73 73 73 73 72 73 71 71 70 68 68 66 68 67 67 66 64 65 65 64 64 64 64 65 65 66 68 68 69 69 69 68 69 68

ECMWFFLT2_sfc_temp_045.txt.gz
Temp
73 73 73 73 72 72 74 75 74 75 75 75 75 75 75 76 75 76 75 75 74 73 72 73 73 73 75 73 74 75 75 75 75 74 74 74 74 74 74 74 74 72 73 73 72 73 73 73 73 73 73 73 74 70 72 72 71 70 68 68 69 70
73 73 73 73 73 73 73 74 72 72 73 74 75 75 74 74 75 73 75 73 72 73 71 71 71 74 72 73 74 75 75 75 74 74 74 74 74 74 74 74 73 73 73 72 73 69 69 72 74 74 73 75 69 68 71 71 70 69 69 68 68 71
74 73 73 73 73 72 72 72 72 72 73 74 75 74 72 73 72 73 73 72 71 70 70 70 71 73 72 73 73 75 75 75 75 74 74 74 74 73 73 73 74 74 72 72 71 69 68 68 69 74 74 70 68 70 71 71 70 69 68 68 68 74
71 68 69 72 73 72 72 72 71 72 71 71 72 73 72 72 73 72 71 69 69 70 70 70 76 76 74 72 72 74 74 75 75 74 74 73 73 73 73 73 73 73 71 71 70 69 71 70 70 69 69 69 70 72 72 71 70 69 68 71 71 74
69 68 68 68 72 72 73 73 72 72 71 70 71 71 70 71 71 71 70 69 69 69 69 69 69 70 69 70 69 70 71 70 70 69 72 67 68 70 69 69 68 69 67 69 70 71 70 70 68 68 68 70 71 73 72 71 70 69 68 68 69 73
69 68 68 68 70 73 74 72 72 72 72 71 70 69 69 68 69 69 69 69 69 68 68 68 68 68 69 69 69 68 69 69 68 68 69 67 67 68 68 69 68 68 68 70 71 71 69 68 68 68 69 71 73 73 72 71 70 69 68 67 70 73
68 68 69 69 69 70 69 69 72 72 71 69 68 68 68 68 68 69 69 69 68 67 67 67 68 68 67 68 68 68 68 68 68 68 68 67 69 69 69 69 68 68 69 71 72 72 68 68 68 68 68 71 70 72 71 70 70 69 67 68 71 73
68 68 68 69 69 68 69 69 72 73 70 70 69 68 67 67 68 68 69 68 68 68 67 67 67 67 68 68 68 69 69 68 70 69 69 69 69 68 68 68 70 71 72 73 74 71 69 69 68 67 69 69 69 69 68 70 70 69 68 68 68 72
69 68 68 68 69 68 69 69 69 69 69 71 68 68 68 68 67 68 68 69 69 67 67 68 67 67 68 68 67 67 68 68 70 69 69 68 69 68 68 69 70 71 72 72 71 69 69 68 67 68 68 67 65 66 67 69 70 69 68 67 67 70
69 68 68 69 69 68 68 67 68 69 68 69 67 68 68 67 67 67 67 69 69 68 68 67 67 67 68 66 66 66 67 66 68 68 69 69 70 69 69 68 69 70 73 72 71 69 68 69 70 68 68 67 66 66 67 67 71 69 68 67 67 69
68 69 68 68 68 68 67 67 68 68 68 68 68 68 67 67 67 67 67 69 69 69 68 68 68 67 67 66 66 66 67 67 68 69 69 70 70 71 69 70 70 70 72 72 70 69 70 68 68 68 68 67 66 66 67 67 68 69 69 68 67 68
68 68 68 68 68 67 67 67 68 68 68 69 69 67 67 67 67 67 68 68 68 68 68 68 67 67 66 66 66 67 68 68 68 69 70 70 69 70 70 71 73 72 70 71 69 67 68 67 67 67 67 66 66 66 66 67 67 68 69 67 67 66
68 68 67 67 67 67 67 68 68 67 68 69 68 68 67 67 68 68 68 68 68 68 68 67 67 67 67 66 66 67 68 68 70 69 69 69 69 69 70 69 69 71 69 69 68 66 66 66 65 65 66 66 66 66 67 67 67 67 68 67 66 66
69 68 67 66 67 67 68 68 68 67 68 68 67 67 67 67 68 68 68 68 68 68 67 67 67 66 66 66 67 68 68 68 70 70 69 69 68 69 69 70 69 68 69 68 66 64 64 64 64 64 65 66 65 65 66 67 67 66 68 67 66 66
69 67 67 66 67 67 68 68 66 66 66 67 67 66 67 67 67 68 68 68 68 68 67 67 68 67 67 67 66 67 67 68 70 69 70 69 68 68 68 67 67 66 66 66 64 65 65 64 63 64 64 65 65 65 65 66 66 68 68 66 66 65
68 67 66 67 67 67 68 67 67 67 66 67 66 66 66 67 67 67 68 67 68 68 68 68 68 67 67 67 67 67 67 68 69 69 69 69 68 66 66 66 66 67 64 64 65 64 64 63 64 64 64 64 64 65 64 65 67 67 67 66 66 65
67 67 67 67 68 68 67 66 66 66 66 66 66 66 66 67 67 67 67 67 68 68 68 68 68 69 67 67 67 68 69 69 69 68 67 67 68 66 66 66 66 65 64 64 64 64 63 63 63 64 64 64 64 64 65 65 65 66 67 66 65 65
68 68 68 68 68 68 67 66 65 65 66 66 67 67 67 67 66 67 67 66 67 67 67 67 67 66 65 66 66 66 65 67 68 68 67 67 66 66 66 65 64 65 65 65 63 63 63 63 64 63 64 64 64 64 64 65 66 66 65 65 65 65
69 69 68 68 69 68 66 66 65 65 65 66 67 66 66 66 66 67 66 67 67 67 67 67 67 66 65 65 65 65 65 66 66 66 67 67 65 66 66 65 64 64 65 65 63 64 63 63 64 64 63 63 64 64 65 65 65 64 64 65 66 67
69 69 69 68 68 66 65 64 64 63 63 65 65 66 65 66 66 66 67 67 67 66 66 66 66 66 65 65 65 65 66 66 65 66 66 65 64 65 64 64 65 64 64 64 64 64 64 63 63 64 64 64 64 64 64 64 64 64 64 64 64 64
68 69 68 68 67 66 64 64 64 63 62 63 64 65 65 66 66 66 67 67 67 66 65 66 66 66 65 66 65 65 65 65 65 66 66 65 65 65 65 64 64 63 64 62 62 64 64 64 63 61 62 62 62 63 64 64 62 62 63 63 63 63
69 69 68 68 67 67 67 66 64 63 63 63 64 64 64 65 65 66 66 65 66 66 66 66 66 66 66 65 65 65 65 65 65 65 66 66 66 66 65 64 64 63 64 63 61 63 64 64 60 60 59 58 59 61 62 62 63 63 63 64 64 63
68 68 68 68 68 67 68 68 66 63 64 63 65 65 66 66 65 66 65 65 65 66 66 66 67 67 67 67 66 65 65 64 65 66 64 64 64 64 64 64 64 63 62 61 62 64 63 61 59 60 60 59 56 56 58 59 61 62 63 63 64 64
67 67 68 68 68 69 69 68 67 66 66 65 63 66 65 65 65 65 64 66 65 65 66 66 67 67 68 68 67 66 65 64 65 66 65 64 64 63 63 63 63 63 63 60 59 61 63 62 62 62 56 54 56 57 55 55 57 60 63 63 63 63
66 66 66 69 68 68 69 67 67 67 67 65 65 65 64 64 64 65 65 65 65 66 66 66 67 68 68 68 67 67 66 66 66 66 66 64 63 63 63 64 64 64 63 61 60 60 62 63 63 63 59 57 55 54 54 55 58 58 61 61 63 63
64 65 67 68 69 69 68 67 64 63 63 63 62 63 63 63 63 64 64 66 66 67 67 67 67 68 69 67 67 67 66 66 66 66 65 64 64 63 63 63 63 64 63 63 63 62 60 62 63 64 62 60 58 54 56 58 57 53 60 62 61 63
67 68 68 68 69 68 67 67 66 65 65 64 62 63 64 65 65 65 65 64 65 66 67 67 67 67 68 68 67 67 66 66 67 66 65 64 63 63 63 64 64 63 64 64 63 61 61 61 61 62 63 63 63 61 63 60 54 56 54 58 60 59
68 69 69 69 69 68 67 66 65 65 65 63 63 63 64 64 64 64 64 64 64 65 66 67 67 67 68 68 67 67 67 67 66 65 65 63 63 64 64 65 64 64 64 64 64 62 61 61 61 60 61 62 62 63 65 60 62 60 57 55 56 60
66 68 68 69 69 68 68 67 66 66 64 64 65 64 64 64 63 64 63 63 64 65 66 67 68 68 68 68 68 68 68 67 64 64 65 64 65 65 64 64 63 63 63 63 63 63 63 61 61 60 59 59 60 61 61 62 62 61 57 56 55 56
65 68 69 69 69 68 68 67 66 66 65 64 64 64 64 63 63 63 62 63 63 63 64 65 67 68 68 69 68 68 68 67 64 65 65 65 65 66 65 65 64 63 64 63 62 64 63 62 62 62 61 60 59 59 60 60 59 60 60 60 57 58
66 67 68 68 68 68 68 68 67 67 66 65 64 63 62 62 62 62 62 62 61 62 63 65 66 68 67 68 68 68 68 67 64 66 66 65 65 65 64 65 65 64 64 64 63 63 62 62 62 62 61 61 60 61 59 57 59 60 58 57 58 58
67 67 68 68 68 68 69 68 67 67 66 65 64 64 62 62 62 62 62 61 60 61 62 64 65 65 66 67 67 67 68 66 65 65 64 64 64 65 65 64 63 63 64 63 63 63 62 62 62 62 61 61 60 61 60 60 60 60 60 60 61 59
66 67 67 68 68 68 68 68 68 68 66 65 65 64 63 62 62 62 61 61 60 61 61 63 64 65 65 66 66 67 66 65 65 64 64 64 65 66 64 63 63 64 63 63 62 62 62 62 62 62 61 61 61 62 61 61 62 61 60 62 62 60
67 67 67 68 68 68 68 68 68 68 67 66 64 64 64 63 63 63 63 62 62 62 63 64 65 66 67 67 67 67 67 66 66 65 64 64 64 64 64 64 63 63 63 63 63 62 62 62 62 62 63 62 62 61 61 62 62 62 62 61 60 61
66 67 68 68 68 68 68 68 67 67 67 66 65 64 64 65 64 63 64 64 64 64 65 66 67 67 67 67 66 66 66 65 65 65 65 64 64 63 63 64 64 64 63 63 63 62 62 62 63 62 62 62 62 61 61 61 63 63 64 63 62 61
62 65 66 68 68 68 67 68 67 66 66 66 66 66 66 65 65 65 65 65 66 66 66 66 67 67 67 67 66 66 66 66 66 66 65 65 64 63 63 63 63 63 63 65 62 61 61 62 62 63 62 62 62 61 61 62 63 63 64 64 63 61
60 62 65 67 68 68 67 66 66 66 66 66 65 66 66 66 66 66 66 66 66 66 66 67 67 67 67 67 67 67 66 66 66 66 65 64 64 64 63 63 63 62 62 63 62 62 61 62 62 62 62 62 62 61 62 63 64 64 64 64 64 63

ECMWFFLT2_sfc_temp_048.txt.gz
Temp
71 71 71 71 71 72 73 75 74 75 75 75 75 75 75 75 76 76 75 75 74 72 72 72 73 73 75 73 74 74 75 74 74 74 74 74 74 74 74 73 73 72 72 72 72 73 73 73 73 73 74 73 72 67 67 66 66 65 65 65 67 70
71 71 71 72 72 72 73 74 72 73 73 74 74 75 74 73 74 72 75 74 71 72 70 70 71 74 72 73 73 75 74 74 74 74 73 73 73 73 73 73 72 72 72 71 73 66 67 71 74 74 73 73 69 67 66 66 66 65 65 65 67 71
71 71 71 71 72 72 72 71 72 72 73 74 74 73 72 73 71 71 71 70 70 70 70 70 71 72 72 73 73 75 74 74 74 74 74 73 73 73 73 73 73 73 71 72 67 66 67 66 67 73 73 70 68 68 67 66 66 65 65 66 66 73
71 71 70 70 71 71 71 71 71 71 71 71 72 72 72 71 71 71 70 69 69 69 69 69 74 74 74 71 72 74 74 74 74 74 74 73 73 73 73 73 73 72 69 68 65 66 68 67 66 67 68 69 68 68 69 67 66 65 66 69 69 73
70 70 70 69 70 70 70 70 70 70 70 70 70 70 70 70 70 69 69 69 68 69 68 69 69 69 68 69 69 69 70 69 69 68 72 67 68 69 68 66 66 66 64 65 66 67 67 66 67 68 69 70 70 69 69 68 67 65 66 67 68 73
68 68 68 68 69 70 71 69 69 70 70 69 69 69 69 69 69 69 68 68 69 68 67 67 67 67 68 68 68 67 67 67 66 67 68 66 65 66 66 67 65 66 66 65 66 67 67 66 66 67 68 70 70 69 69 69 68 66 66 66 69 73
67 67 68 68 69 70 69 69 70 69 69 68 68 68 68 68 68 68 68 69 67 67 66 66 67 67 67 67 67 67 66 66 66 66 66 65 66 66 66 66 66 66 66 67 68 68 67 66 66 67 67 69 70 70 69 69 68 67 66 66 70 73
67 67 67 68 68 68 67 68 69 71 69 70 68 67 67 67 68 68 68 68 68 67 66 66 66 66 66 67 67 67 66 66 66 66 67 66 66 66 67 67 66 65 66 68 69 68 66 66 65 66 68 67 67 67 67 68 68 67 66 67 68 72
67 68 67 67 68 67 67 67 68 68 67 71 67 67 67 67 67 68 68 68 68 67 66 66 66 66 66 66 66 66 65 66 66 66 66 66 68 67 67 67 66 66 65 67 68 67 66 65 65 66 66 66 66 66 66 66 67 67 66 66 67 70
68 68 67 67 67 66 67 66 67 67 67 69 66 66 67 67 67 68 67 68 68 67 67 66 66 66 66 66 65 66 66 65 66 66 67 67 66 66 65 65 65 66 67 66 67 67 66 65 66 66 66 66 65 66 66 66 66 66 66 66 67 69
68 69 67 67 67 66 66 66 66 66 67 66 66 67 66 66 67 67 67 68 68 68 67 67 66 66 66 66 65 65 65 65 65 66 66 66 66 66 65 65 66 65 65 66 66 67 67 65 65 65 65 66 65 66 66 67 66 66 66 66 66 67
67 68 67 67 68 66 66 66 67 66 66 66 67 66 66 66 67 67 68 68 68 67 68 67 67 66 66 65 65 65 65 65 66 65 66 66 66 67 65 66 67 67 67 66 65 65 65 64 64 65 65 65 64 65 65 66 66 66 65 65 66 66
68 67 67 67 66 66 66 67 66 66 66 67 66 66 66 66 66 67 68 68 68 68 68 67 66 66 67 65 65 65 65 66 66 66 67 68 67 66 67 66 66 67 66 65 65 64 65 64 63 63 64 64 65 65 65 66 65 66 66 64 65 65
67 67 66 66 66 66 66 66 67 66 67 67 66 66 66 66 67 67 67 68 67 68 67 67 66 66 65 65 65 65 65 66 67 67 67 67 66 66 66 67 67 67 66 64 64 63 63 63 63 63 63 64 64 64 65 65 64 65 65 64 64 64
67 66 67 66 66 66 67 66 66 66 66 66 66 66 66 67 66 66 67 67 67 67 67 67 67 66 65 65 65 64 64 65 67 68 68 67 66 66 66 66 66 65 63 62 63 63 63 63 63 63 62 63 63 64 65 64 65 65 64 64 64 64
67 66 66 66 66 67 67 66 66 67 66 66 66 66 66 67 67 67 67 67 67 67 67 67 67 66 65 66 65 64 64 65 67 67 67 66 66 65 65 65 65 65 63 62 63 62 62 62 62 62 62 63 63 64 63 64 64 64 64 64 64 63
65 66 66 66 66 66 66 65 65 66 66 66 66 66 67 67 67 67 67 67 67 67 67 67 67 67 66 66 65 65 65 66 67 66 65 65 65 65 65 65 64 65 64 62 62 62 62 62 62 62 62 63 63 64 64 64 63 64 65 64 63 63
65 67 66 66 66 66 65 65 64 64 66 66 66 67 67 67 67 67 67 66 67 67 67 67 67 67 66 66 65 65 65 65 65 65 64 65 64 64 64 64 63 63 64 63 62 61 61 61 62 62 62 62 62 62 63 64 64 64 64 64 63 63
66 67 66 66 66 65 65 65 63 64 65 65 66 67 67 67 67 67 67 66 66 66 67 67 66 66 65 66 65 65 64 65 65 64 64 64 63 64 64 63 63 63 63 63 62 62 62 62 62 62 62 62 63 63 63 64 64 64 63 64 64 65
67 67 67 67 67 65 65 64 64 63 64 65 65 66 67 67 67 67 67 65 66 66 66 66 66 65 65 65 64 64 64 65 64 64 63 63 63 64 63 63 63 63 62 63 63 62 63 62 62 62 62 62 62 63 63 63 63 63 63 64 65 64
67 68 68 67 65 64 63 63 63 63 63 64 65 66 66 66 67 67 67 66 66 65 65 65 65 65 65 66 64 64 64 64 64 64 64 64 64 64 64 64 63 63 62 61 61 63 63 63 62 61 62 61 61 62 64 63 62 62 62 62 63 64
67 67 68 68 66 65 64 65 64 63 64 64 65 65 65 66 66 67 67 66 65 65 65 65 65 65 65 65 64 63 63 63 63 63 64 64 64 65 64 63 64 62 63 62 61 63 63 63 61 60 59 59 60 61 62 62 61 61 61 62 62 63
67 67 68 68 67 66 65 65 64 63 64 64 66 65 66 66 67 67 66 66 65 65 65 65 65 65 65 65 65 63 63 63 64 64 63 63 63 63 63 63 63 62 62 62 62 63 63 62 60 61 61 59 57 56 59 61 61 61 61 60 61 62
67 68 67 67 67 67 67 66 64 63 64 64 64 65 65 65 66 66 65 65 64 65 65 65 66 66 66 65 65 64 64 64 64 64 64 63 63 62 63 62 63 63 63 60 61 62 64 61 62 61 56 55 56 57 55 57 57 59 61 61 61 62
67 67 67 67 67 67 66 65 64 63 64 63 64 63 63 63 64 65 65 64 63 64 65 65 65 66 66 65 65 64 64 64 64 64 64 64 63 62 63 63 64 63 62 62 60 61 62 61 62 64 60 56 54 54 54 55 58 59 60 60 61 62
67 67 67 66 66 66 66 64 62 61 61 61 61 62 61 62 63 63 64 65 64 64 65 64 65 66 66 66 65 65 64 64 64 64 63 63 63 62 62 63 64 63 62 63 62 60 60 61 63 62 60 60 61 56 54 56 58 54 59 59 59 61
67 66 66 66 66 66 65 64 63 63 62 62 62 63 64 64 63 65 65 63 64 64 65 64 64 65 65 66 66 65 65 65 65 64 64 63 62 62 63 63 63 63 63 63 62 60 60 60 61 61 61 61 60 58 61 59 53 54 54 57 59 58
66 66 65 66 66 67 66 65 64 63 63 62 63 63 64 64 65 65 64 63 63 64 65 65 65 65 65 65 66 65 65 65 64 64 64 62 62 62 62 64 64 64 63 63 62 61 60 61 61 60 59 59 59 60 62 58 60 58 56 54 55 59
65 65 65 66 66 66 67 66 65 64 63 63 63 63 64 65 64 64 64 64 64 64 64 65 65 65 66 66 66 66 65 64 64 64 64 62 62 63 63 62 62 62 62 62 62 62 62 61 61 59 59 57 59 59 59 59 60 58 53 54 53 55
65 66 67 67 67 66 66 66 64 64 63 62 62 62 63 63 64 64 63 63 63 63 63 64 64 65 65 66 66 66 65 64 63 64 64 63 63 62 62 62 63 63 63 62 62 62 62 61 61 61 61 59 58 57 57 58 57 56 58 56 56 55
65 66 67 67 66 65 66 66 65 64 63 62 62 62 62 62 63 63 62 62 63 63 62 63 63 64 65 65 65 64 64 63 63 64 64 63 62 62 62 62 62 63 62 62 61 62 61 61 60 60 59 60 60 61 59 57 57 58 57 54 54 55
65 65 66 67 66 66 66 65 65 65 64 63 62 63 62 62 63 62 62 62 62 61 61 62 63 63 64 64 64 64 63 63 63 63 63 63 63 63 63 63 62 62 62 62 62 62 61 61 60 60 59 60 60 60 59 59 59 59 58 57 58 56
65 65 66 66 66 66 65 65 65 65 64 63 63 63 63 63 63 62 61 61 60 61 61 61 62 63 63 64 63 62 62 62 63 63 63 63 63 63 63 62 62 62 62 61 62 62 61 61 61 60 60 59 59 59 60 59 61 60 58 59 59 57
64 64 65 65 64 64 65 65 65 65 64 64 63 63 62 62 62 62 61 61 61 61 61 62 62 63 64 63 63 63 63 63 63 63 63 63 63 63 62 62 62 62 62 62 61 61 61 61 61 61 60 59 60 58 58 60 61 61 60 59 58 60
61 62 62 62 62 63 63 64 65 65 64 64 63 63 62 63 62 61 61 62 61 61 61 62 63 64 63 62 63 63 63 63 62 62 63 62 63 62 62 62 62 62 62 61 61 61 61 61 61 61 60 60 60 59 59 59 61 62 63 63 61 60
60 61 62 61 62 62 62 62 62 62 64 64 64 63 62 62 62 62 62 62 61 61 62 63 63 64 63 64 63 63 63 63 63 63 62 62 62 62 61 61 61 62 62 63 61 60 60 61 61 61 61 60 60 60 60 60 61 62 63 63 62 61
61 61 61 61 62 62 62 62 62 62 62 63 63 62 62 61 62 62 62 62 62 62 63 63 64 64 63 64 64 64 63 63 63 63 62 62 62 61 61 61 61 61 62 61 61 61 60 61 61 61 60 60 60 60 59 61 61 62 62 61 62 62